Location: Litvinovka
(48.6667°N, 34.3500°E)
Time: 15:28:09
(UTC+00:00)

CSL-04 Debris - Pass Details

Date: 18 September 2020
Orbit: 827 x 848 km, 98.9° (Epoch: 22 October)

Event Time Altitude Azimuth Distance (km) Brightness Sun altitude
Rises 16:34:32 0° 166° (SSE) 3,359 7.1 -8.4°
Reaches altitude 10° 16:36:52 10° 168° (SSE) 2,428 6.4 -8.8°
Maximum altitude 16:42:15 80° 255° (WSW) 847 4.3 -9.6°
Drops below altitude 10° 16:47:41 10° 343° (NNW) 2,443 7.1 -10.5°
Sets 16:50:03 0° 345° (NNW) 3,381 7.8 -10.9°
